TimeCST,TemperatureF,Dew PointF,Humidity,Sea Level PressureIn,VisibilityMPH,Wind Direction,Wind SpeedMPH,Gust SpeedMPH,PrecipitationIn,Events,Conditions,WindDirDegrees,DateUTC
12:53 AM,37.9,35.1,89,30.38,10.0,NNW,3.5,-,N/A,,Clear,330,2013-11-28 06:53:00
1:53 AM,37.9,35.1,89,30.36,10.0,Calm,Calm,-,N/A,,Clear,0,2013-11-28 07:53:00
2:53 AM,36.0,34.0,93,30.34,10.0,NW,3.5,-,N/A,,Clear,320,2013-11-28 08:53:00
3:53 AM,37.9,34.0,86,30.35,9.0,NW,3.5,-,0.00,Snow,Light Snow,320,2013-11-28 09:53:00
4:53 AM,39.0,34.0,82,30.35,9.0,NW,3.5,-,0.00,,Clear,320,2013-11-28 10:53:00
5:53 AM,39.0,33.1,79,30.35,10.0,NNW,5.8,-,0.00,,Clear,330,2013-11-28 11:53:00
6:53 AM,39.0,33.1,79,30.36,10.0,NNW,3.5,-,N/A,,Clear,340,2013-11-28 12:53:00
7:53 AM,43.0,34.0,71,30.37,10.0,North,6.9,-,N/A,,Clear,360,2013-11-28 13:53:00
8:53 AM,51.1,39.0,63,30.39,10.0,NNW,6.9,-,N/A,,Clear,340,2013-11-28 14:53:00
9:53 AM,57.0,42.1,57,30.41,10.0,NW,5.8,-,N/A,,Clear,310,2013-11-28 15:53:00
10:53 AM,61.0,42.1,50,30.40,10.0,NW,9.2,-,N/A,,Clear,320,2013-11-28 16:53:00
11:53 AM,64.0,43.0,46,30.37,10.0,Calm,Calm,-,N/A,,Clear,0,2013-11-28 17:53:00
12:53 PM,66.0,42.1,42,30.34,10.0,Calm,Calm,-,N/A,,Clear,0,2013-11-28 18:53:00
1:53 PM,69.1,41.0,36,30.31,10.0,Variable,5.8,-,N/A,,Clear,0,2013-11-28 19:53:00
2:53 PM,68.0,39.9,36,30.30,10.0,ESE,3.5,-,N/A,,Clear,110,2013-11-28 20:53:00
3:53 PM,66.9,37.0,33,30.30,10.0,NE,6.9,-,N/A,,Clear,50,2013-11-28 21:53:00
4:53 PM,62.1,44.1,52,30.30,10.0,ENE,5.8,-,N/A,,Clear,60,2013-11-28 22:53:00
5:53 PM,59.0,46.9,64,30.32,10.0,NNE,3.5,-,N/A,,Clear,30,2013-11-28 23:53:00
6:53 PM,59.0,48.0,67,30.35,10.0,Calm,Calm,-,N/A,,Clear,0,2013-11-29 00:53:00
7:53 PM,57.9,48.9,72,30.37,10.0,North,4.6,-,N/A,,Scattered Clouds,10,2013-11-29 01:53:00
8:53 PM,57.0,52.0,83,30.38,10.0,North,5.8,-,N/A,,Clear,350,2013-11-29 02:53:00
9:53 PM,55.9,52.0,87,30.38,10.0,NNW,4.6,-,N/A,,Clear,340,2013-11-29 03:53:00
10:53 PM,55.0,52.0,89,30.38,10.0,NNW,4.6,-,N/A,,Clear,330,2013-11-29 04:53:00
11:53 PM,53.1,51.1,93,30.38,10.0,NW,3.5,-,N/A,,Clear,320,2013-11-29 05:53:00